Location: Hopkins Observatory
(42.6965°N, 73.1843°W)
Time: 08:33:25
(UTC-04:00)

UOSAT-12 - Visible Passes

Search period start: 26 May 2016 00:00
Search period end: 05 June 2016 00:00
Orbit: 621 x 633 km, 64.6° (Epoch: 25 May)

Date Brightness Start Highest point End Pass type
(mag) Time Alt. Az. Time Alt. Az. Time Alt. Az.
26 May 9.6 00:43:30 11° E 00:43:30 11° E 00:43:52 10° E visible
26 May 7.0 02:20:46 65° WSW 02:21:18 75° NW 02:25:53 10° NNE visible
26 May 9.5 03:59:50 10° WNW 04:02:12 14° NW 04:04:34 10° N visible
27 May 8.7 01:02:37 24° E 01:02:37 24° E 01:05:15 10° NE visible
27 May 8.2 02:39:53 29° W 02:41:20 37° NW 02:45:36 10° NNE visible
28 May 7.5 01:21:42 55° E 01:21:42 55° E 01:25:35 10° NE visible
28 May 9.1 02:58:58 14° W 03:01:33 21° NW 03:05:01 10° N visible
29 May 9.5 00:03:27 12° E 00:03:27 12° E 00:04:02 10° ENE visible
29 May 7.3 01:40:43 62° WNW 01:40:58 63° NW 01:45:31 10° NNE visible
29 May 9.6 03:20:03 10° WNW 03:21:58 12° NNW 03:23:55 10° N visible
30 May 8.6 00:22:26 26° E 00:22:26 26° E 00:25:03 10° NE visible
30 May 8.5 01:59:41 27° W 02:01:02 32° NW 02:05:10 10° NNE visible
31 May 7.3 00:41:20 62° ENE 00:41:20 62° ENE 00:45:16 10° NE visible
31 May 9.4 02:18:35 12° W 02:21:17 18° NW 02:24:30 10° N visible
31 May 9.2 23:22:55 14° E 23:22:55 14° E 23:24:03 10° ENE visible
01 Jun 7.6 01:00:09 51° WNW 01:00:37 54° NW 01:05:08 10° NNE visible
01 Jun 9.9 02:40:24 10° NW 02:41:45 11° NNW 02:43:06 10° NNW visible
01 Jun 8.1 23:41:39 33° E 23:41:39 33° E 23:44:48 10° NE visible
02 Jun 8.8 01:18:54 21° W 01:20:44 28° NW 01:24:42 10° NNE visible
03 Jun 6.9 00:00:18 85° SE 00:00:20 85° ESE 00:04:56 10° NE visible
03 Jun 9.6 01:38:08 10° WNW 01:41:02 16° NW 01:43:57 10° N visible
03 Jun 8.7 22:41:34 20° E 22:41:34 20° E 22:43:58 10° ENE visible
04 Jun 8.0 00:18:47 33° W 00:20:18 46° NW 00:24:43 10° NNE visible
04 Jun 7.3 22:59:53 46° SE 23:00:08 46° ESE 23:04:32 10° NE visible
